Total_Precipitation_Accumulation
0.10 0.12 0.19 0.24 0.33 0.44 0.49 0.56 0.62 0.73 0.85 0.95 1.10 1.06 1.01 1.04 1.07 1.03 1.01 0.99 1.05 1.06 0.98 0.92 0.94 0.95 0.90 0.84 0.80 0.78 0.77 0.73 0.67 0.72 0.77 0.72 0.59 0.52 0.47 0.44 0.42 0.38 0.34
0.10 0.12 0.19 0.24 0.31 0.44 0.49 0.56 0.66 0.75 0.82 0.90 0.98 1.05 1.02 1.05 1.10 1.07 1.05 1.02 1.00 1.05 1.07 0.98 0.91 0.87 0.87 0.88 0.83 0.82 0.81 0.82 0.77 0.75 0.81 0.83 0.80 0.64 0.48 0.43 0.43 0.42 0.41
0.13 0.14 0.22 0.28 0.32 0.42 0.50 0.56 0.66 0.75 0.81 0.97 1.07 1.14 1.25 1.24 1.27 1.26 1.15 1.06 1.01 0.99 1.01 1.02 0.98 0.91 0.85 0.86 0.84 0.80 0.78 0.79 0.75 0.68 0.81 0.89 0.78 0.62 0.52 0.44 0.38 0.38 0.40
0.14 0.15 0.20 0.29 0.34 0.39 0.50 0.59 0.69 0.76 0.80 0.99 1.14 1.11 1.18 1.18 1.12 1.08 1.11 1.08 1.04 0.99 0.96 0.97 0.97 0.99 0.93 0.83 0.79 0.80 0.80 0.82 0.83 0.73 0.65 0.67 0.67 0.70 0.61 0.51 0.46 0.42 0.41
0.13 0.13 0.15 0.21 0.29 0.36 0.47 0.58 0.72 0.82 0.84 0.92 1.11 1.15 1.09 1.06 1.06 1.09 1.09 1.12 1.12 1.06 0.98 0.94 0.94 0.93 0.92 0.84 0.78 0.79 0.81 0.83 0.83 0.80 0.70 0.63 0.55 0.56 0.66 0.56 0.48 0.52 0.48
0.12 0.12 0.11 0.13 0.26 0.37 0.47 0.55 0.68 0.81 0.87 0.87 0.99 1.15 1.11 1.06 1.04 1.09 1.13 1.13 1.16 1.13 1.03 0.92 0.89 0.85 0.82 0.81 0.76 0.70 0.72 0.75 0.76 0.73 0.71 0.72 0.70 0.60 0.62 0.60 0.46 0.46 0.48
0.14 0.14 0.12 0.13 0.20 0.32 0.43 0.53 0.63 0.72 0.80 0.83 0.88 0.98 1.10 1.06 0.99 0.94 1.00 1.08 1.15 1.11 1.03 0.97 0.88 0.82 0.78 0.78 0.77 0.73 0.67 0.67 0.72 0.71 0.67 0.65 0.62 0.57 0.62 0.70 0.62 0.53 0.48
0.10 0.11 0.13 0.15 0.18 0.23 0.30 0.43 0.54 0.67 0.80 0.84 0.84 0.89 0.99 1.10 1.02 0.94 0.92 0.97 1.02 0.99 0.91 0.92 0.88 0.81 0.76 0.78 0.80 0.80 0.73 0.69 0.70 0.68 0.66 0.66 0.61 0.62 0.69 0.79 0.86 0.81 0.59
0.09 0.10 0.12 0.15 0.17 0.22 0.25 0.36 0.45 0.59 0.78 0.89 0.88 0.88 0.93 1.01 1.03 0.95 0.91 0.93 0.93 0.93 0.92 0.91 0.91 0.86 0.85 0.85 0.85 0.85 0.80 0.75 0.73 0.72 0.71 0.72 0.68 0.67 0.68 0.74 0.86 1.07 0.96
0.11 0.11 0.12 0.15 0.17 0.20 0.23 0.31 0.39 0.47 0.60 0.79 0.93 0.93 0.90 0.91 0.98 1.01 0.97 0.92 0.92 0.92 0.92 0.97 0.98 0.93 0.89 0.92 0.94 0.90 0.84 0.84 0.80 0.80 0.81 0.76 0.72 0.74 0.77 0.81 0.81 0.88 1.01
0.11 0.11 0.13 0.15 0.18 0.21 0.26 0.32 0.39 0.45 0.51 0.61 0.78 0.90 0.91 0.95 1.00 1.04 0.99 0.98 0.94 0.93 0.90 0.90 0.98 1.01 0.94 0.88 0.95 0.97 0.93 0.92 0.86 0.83 0.84 0.81 0.77 0.85 0.88 0.92 0.92 0.87 0.90
0.09 0.09 0.11 0.16 0.20 0.24 0.29 0.35 0.43 0.45 0.47 0.55 0.66 0.78 0.89 0.94 1.00 0.99 1.01 1.06 1.04 0.97 0.89 0.86 0.93 1.00 0.99 0.91 0.90 0.93 0.93 0.95 0.92 0.88 0.89 0.88 0.85 0.88 0.91 0.98 0.98 0.90 0.84
0.08 0.09 0.11 0.16 0.21 0.26 0.29 0.37 0.44 0.44 0.45 0.55 0.64 0.74 0.86 0.89 0.93 0.90 0.93 1.08 1.19 1.14 1.00 0.91 0.94 1.02 1.07 1.01 0.92 0.93 0.93 0.90 0.86 0.85 0.90 0.93 0.94 0.89 0.88 0.98 1.03 0.97 0.91
0.09 0.10 0.13 0.16 0.20 0.22 0.27 0.33 0.41 0.47 0.49 0.52 0.62 0.71 0.80 0.82 0.82 0.82 0.83 0.95 1.12 1.21 1.13 1.00 0.95 1.02 1.14 1.17 1.14 1.13 1.05 0.95 0.85 0.77 0.79 0.88 1.01 1.02 1.03 1.07 1.06 1.08 1.12
0.09 0.10 0.13 0.16 0.21 0.25 0.28 0.31 0.37 0.47 0.54 0.52 0.60 0.63 0.69 0.78 0.78 0.76 0.80 0.89 1.02 1.09 1.11 1.08 1.02 1.03 1.23 1.47 1.63 1.51 1.22 1.02 0.90 0.75 0.71 0.80 1.05 1.23 1.39 1.45 1.34 1.35 1.47
0.10 0.11 0.13 0.17 0.23 0.28 0.31 0.34 0.38 0.44 0.52 0.52 0.57 0.59 0.66 0.77 0.81 0.75 0.78 0.89 1.00 1.04 1.05 1.04 1.03 1.02 1.20 1.57 1.79 1.47 1.13 0.98 0.92 0.84 0.74 0.79 1.03 1.17 1.30 1.43 1.41 1.46 1.65
0.12 0.12 0.15 0.19 0.23 0.29 0.30 0.35 0.38 0.42 0.49 0.51 0.53 0.59 0.68 0.72 0.79 0.79 0.81 0.91 1.01 1.03 1.02 0.99 0.97 0.94 1.01 1.36 1.59 1.37 1.06 0.94 0.90 0.86 0.80 0.82 0.92 1.05 1.07 1.17 1.20 1.22 1.40
0.17 0.16 0.18 0.22 0.22 0.26 0.26 0.30 0.35 0.45 0.52 0.52 0.49 0.56 0.64 0.67 0.77 0.82 0.84 0.94 1.03 1.00 1.00 0.99 0.95 0.91 0.95 1.23 1.49 1.32 1.05 0.97 0.91 0.90 0.84 0.78 0.81 0.93 1.09 1.17 1.12 1.04 1.12
0.21 0.20 0.20 0.21 0.21 0.24 0.25 0.24 0.29 0.41 0.51 0.55 0.49 0.51 0.60 0.65 0.74 0.80 0.87 0.94 1.02 0.99 0.96 0.94 0.96 0.91 0.89 1.14 1.50 1.40 1.09 1.01 0.94 0.94 0.88 0.78 0.74 0.92 1.08 1.06 1.04 0.96 1.01
0.19 0.20 0.19 0.19 0.21 0.24 0.25 0.23 0.26 0.33 0.45 0.53 0.45 0.48 0.55 0.58 0.66 0.74 0.84 0.92 0.92 0.91 0.93 0.89 0.89 0.87 0.83 0.99 1.40 1.52 1.14 1.04 0.96 0.95 0.91 0.97 0.95 1.03 1.05 0.97 1.02 1.11 1.00
0.19 0.18 0.18 0.19 0.22 0.25 0.25 0.25 0.27 0.29 0.38 0.50 0.46 0.48 0.52 0.56 0.63 0.72 0.76 0.83 0.87 0.86 0.91 0.90 0.87 0.86 0.84 0.89 1.16 1.50 1.25 1.07 0.97 0.98 0.97 0.92 1.06 1.08 1.04 1.02 1.00 1.16 1.10
0.19 0.19 0.18 0.19 0.19 0.22 0.25 0.27 0.30 0.31 0.37 0.46 0.48 0.53 0.57 0.59 0.63 0.69 0.68 0.71 0.81 0.85 0.88 0.92 0.95 0.92 0.87 0.90 1.11 1.32 1.28 1.17 0.98 0.95 0.88 0.87 1.03 1.08 1.10 1.07 1.10 1.16 1.15
0.21 0.21 0.20 0.18 0.18 0.20 0.25 0.31 0.36 0.35 0.40 0.45 0.48 0.54 0.61 0.64 0.66 0.65 0.65 0.69 0.76 0.83 0.87 0.90 0.91 0.93 0.90 0.94 1.13 1.14 1.17 1.17 1.06 1.05 1.08 1.04 1.13 1.16 1.08 1.04 1.08 1.05 1.00
0.24 0.24 0.23 0.21 0.21 0.20 0.24 0.32 0.38 0.38 0.42 0.45 0.47 0.52 0.57 0.64 0.67 0.63 0.61 0.63 0.71 0.82 0.83 0.85 0.83 0.83 0.86 1.00 1.12 1.04 1.03 1.11 1.17 1.19 1.18 1.19 1.21 1.17 1.10 1.04 0.94 0.86 0.88
0.26 0.26 0.26 0.24 0.23 0.23 0.26 0.34 0.38 0.39 0.43 0.43 0.43 0.47 0.49 0.60 0.70 0.69 0.64 0.63 0.64 0.78 0.87 0.82 0.80 0.85 0.96 1.10 1.19 1.10 1.08 1.13 1.20 1.28 1.33 1.27 1.23 1.21 1.10 0.95 0.84 0.80 0.85
0.29 0.28 0.28 0.27 0.27 0.28 0.31 0.37 0.40 0.40 0.40 0.42 0.41 0.44 0.47 0.55 0.65 0.68 0.70 0.76 0.74 0.77 0.77 0.76 0.80 0.80 0.95 1.06 1.06 1.08 1.10 1.19 1.26 1.31 1.31 1.15 1.00 0.96 0.91 0.85 0.79 0.76 0.75